Location: Eschertshofen
(49.3064°N, 11.5756°E)
Time: 03:21:06
(UTC+00:00)

SJ-11-01 - Visible Passes

Search period start: 26 January 2021 00:00
Search period end: 05 February 2021 00:00
Orbit: 683 x 701 km, 98.0° (Epoch: 25 January)

Date Brightness Start Highest point End Pass type
(mag) Time Alt. Az. Time Alt. Az. Time Alt. Az.
26 Jan 4.2 17:55:18 10° SSE 17:59:59 88° E 18:04:42 10° NNW visible
26 Jan 7.3 19:36:13 10° WSW 19:38:14 13° W 19:40:15 10° WNW visible
27 Jan 7.3 05:50:04 10° NE 05:53:07 17° E 05:56:09 10° SE visible
27 Jan 5.1 16:58:22 10° ESE 17:02:21 28° ENE 17:06:20 10° N visible
27 Jan 5.5 18:35:23 10° SSW 18:39:47 40° W 18:44:12 10° NNW visible
28 Jan 4.2 17:37:12 10° SSE 17:41:48 61° ENE 17:46:26 10° N visible
28 Jan 6.9 19:16:34 10° SW 19:19:47 18° W 19:23:02 10° NW visible
29 Jan 7.6 05:33:04 10° ENE 05:34:40 12° E 05:36:15 10° ESE visible
29 Jan 5.5 16:40:52 10° ESE 16:44:19 21° ENE 16:47:45 10° NNE visible
29 Jan 4.8 18:16:53 10° S 18:21:29 59° W 18:26:08 10° NNW visible
30 Jan 6.8 06:10:52 10° NE 06:14:48 26° E 06:18:44 10° SSE visible
30 Jan 4.6 17:19:17 10° SE 17:23:40 42° ENE 17:28:06 10° N visible
30 Jan 6.4 18:57:29 10° SSW 19:01:24 26° W 19:05:20 10° NW visible
31 Jan 4.2 17:58:34 10° SSE 18:03:15 86° WSW 18:07:58 10° NNW visible
31 Jan 7.4 19:39:58 10° WSW 19:41:33 11° W 19:43:08 10° WNW visible
01 Feb 7.3 05:53:10 10° NE 05:56:25 18° E 05:59:39 10° SE visible
01 Feb 5.0 17:01:31 10° SE 17:05:35 30° ENE 17:09:39 10° N visible
01 Feb 5.7 18:38:44 10° SSW 18:43:04 37° W 18:47:25 10° NNW visible
02 Feb 4.2 17:40:26 10° SSE 17:45:03 66° ENE 17:49:42 10° N visible
02 Feb 7.0 19:20:04 10° SW 19:23:06 17° W 19:26:08 10° NW visible
03 Feb 7.6 05:35:56 10° ENE 05:37:59 13° E 05:40:00 10° ESE visible
03 Feb 5.4 16:43:58 10° ESE 16:47:32 22° ENE 16:51:06 10° NNE visible
03 Feb 5.0 18:20:11 10° S 18:24:46 54° W 18:29:22 10° NNW visible
04 Feb 4.5 17:22:28 10° SE 17:26:54 46° ENE 17:31:22 10° N visible
04 Feb 6.5 19:00:54 10° SSW 19:04:41 24° W 19:08:29 10° NW visible
